Theta_e
311 311 311 311 311 312 312 312 313 314 315 316 316 317 317 317 317 316 316 316 316 316 316 317 317 317 317 317 318 317 316 302 301 298 296 299 310 315 314 314 314 314 315 304 304 302 299 300 300 302 301 297 296 295 295 299 299 298 292 290 291 292 295 297 299 298 302 298 301 302 302 307 302 307 311 311 310 307 304 304 306 306 308 314 313 315 317 315
311 311 311 311 311 312 312 313 314 315 315 317 317 317 317 316 316 316 316 316 316 316 316 317 316 317 317 317 317 317 309 302 299 295 295 307 314 314 314 314 313 313 314 301 300 301 298 297 299 300 298 293 299 293 297 294 299 293 290 292 294 294 299 300 302 301 297 298 302 303 304 304 302 307 307 300 298 305 301 301 302 301 303 305 307 307 307 308
311 311 311 312 312 312 313 313 314 315 316 317 317 316 316 315 315 315 315 316 316 316 316 316 316 316 317 317 316 317 306 299 294 291 297 311 314 314 314 313 313 313 304 301 302 302 299 298 299 298 297 295 294 293 295 292 297 292 291 289 292 297 300 299 300 300 302 303 302 302 302 302 302 303 304 298 296 297 295 297 298 298 298 300 303 304 304 305
311 311 311 311 312 312 312 313 314 316 317 317 317 317 316 316 315 314 315 316 317 317 317 316 316 316 316 317 318 309 301 293 289 294 299 312 314 314 313 313 313 311 303 304 304 301 301 300 300 299 296 293 292 295 291 292 294 293 292 289 293 298 300 301 301 302 304 305 302 301 300 298 299 301 304 301 296 295 296 298 297 297 298 299 301 302 302 302
311 311 312 313 312 312 313 314 315 317 317 317 318 318 318 318 317 316 315 316 316 317 317 316 315 316 316 317 316 303 294 283 286 296 301 313 313 313 312 312 313 306 303 301 301 301 301 300 300 298 295 289 291 292 289 292 295 293 291 293 298 299 300 302 303 303 302 303 302 301 298 297 300 299 297 298 293 293 296 298 299 299 299 299 299 300 301 300
311 312 313 313 313 314 314 315 316 317 317 317 317 317 318 318 318 318 317 317 316 317 318 317 316 316 317 317 303 298 290 275 293 296 312 314 313 313 312 312 313 306 300 300 299 299 300 299 299 293 290 290 289 288 288 290 294 287 290 293 296 297 300 303 303 303 302 299 298 297 298 299 296 295 297 296 295 296 301 300 300 300 300 300 300 300 299 299
312 313 313 313 314 314 315 315 316 317 317 318 318 318 318 318 318 318 318 317 317 316 317 316 316 317 316 316 300 297 290 290 295 299 310 313 314 314 313 314 310 301 301 299 298 297 298 296 297 293 291 290 289 288 291 291 292 290 288 293 295 296 300 304 302 301 300 298 296 298 299 296 296 291 296 294 297 298 300 301 300 300 300 299 298 298 298 298
313 313 313 313 314 314 314 315 315 316 316 317 318 318 319 319 319 319 318 318 318 317 317 316 316 316 316 300 296 291 287 289 297 300 309 312 307 304 308 301 302 301 300 298 298 297 297 295 293 294 290 288 288 291 291 291 291 289 288 291 295 297 300 304 301 298 297 296 297 296 294 293 295 294 295 294 296 298 299 300 299 298 298 297 297 296 297 297
312 313 313 313 314 314 314 314 314 315 315 317 317 317 318 319 318 319 319 318 318 318 316 317 316 315 314 299 292 286 286 296 300 301 301 300 299 299 299 299 301 300 298 299 300 299 298 296 295 295 289 290 294 292 291 288 287 289 290 292 296 297 302 301 298 297 297 296 296 293 292 295 295 296 292 296 296 298 298 298 298 297 296 295 295 295 295 295
312 313 313 313 313 314 314 314 314 314 315 316 316 317 318 318 319 319 319 318 318 319 318 317 316 313 303 294 289 284 292 299 300 301 301 299 298 298 299 299 300 298 297 298 298 298 297 296 296 297 295 292 294 291 293 288 285 291 291 296 297 297 298 298 295 295 295 294 294 291 290 291 295 294 288 295 299 298 296 296 297 296 295 294 294 294 294 294
312 312 312 313 313 314 314 315 314 314 315 316 316 317 317 317 318 319 320 320 319 319 319 317 315 311 300 293 287 283 299 298 300 300 300 299 298 297 298 298 300 297 298 297 297 297 298 297 297 298 295 291 295 293 292 292 292 294 296 295 295 295 296 295 294 294 295 292 294 292 290 291 292 292 289 293 297 299 294 293 294 294 294 293 293 293 294 294
312 312 312 312 312 313 314 314 314 315 315 315 316 316 316 317 318 319 320 320 318 319 319 319 314 304 296 288 287 289 299 299 300 300 300 299 298 298 299 298 298 300 299 296 297 297 298 298 299 297 288 298 290 293 291 295 293 296 297 291 293 295 294 296 293 294 295 292 296 295 290 287 288 286 292 294 296 295 293 292 292 291 291 292 292 293 292 292
311 311 312 312 312 313 313 314 314 314 314 314 315 315 316 317 318 320 321 320 319 318 319 318 312 302 293 286 290 298 299 300 301 300 300 299 299 300 303 304 303 301 300 297 296 299 299 299 299 295 296 295 294 285 293 299 293 298 297 294 292 292 291 296 300 296 295 296 298 295 280 284 287 290 293 295 295 293 292 291 291 291 291 291 291 292 292 292
311 311 311 311 312 312 313 313 314 314 314 314 314 315 316 317 319 319 321 320 320 317 316 315 304 299 293 286 295 300 301 302 301 298 298 300 299 299 303 305 304 301 302 300 299 300 301 299 298 296 298 294 292 299 296 294 297 292 294 295 289 288 287 294 295 293 291 295 296 294 281 283 287 289 292 293 293 291 289 290 290 290 290 290 290 291 291 292
311 311 311 311 311 312 312 313 313 313 313 313 314 314 316 316 318 320 321 319 315 314 314 311 301 296 287 288 297 300 309 304 297 297 299 298 297 297 299 302 301 301 300 301 300 301 301 300 298 294 291 297 298 295 287 290 294 294 290 286 288 287 287 290 294 294 289 292 295 291 282 284 287 289 292 294 292 290 289 289 290 289 290 290 290 290 291 291
311 311 311 311 311 311 312 313 313 313 313 313 314 314 315 316 317 319 321 315 312 310 304 295 294 292 285 285 293 305 297 293 294 298 300 301 300 298 300 300 301 300 301 300 301 301 300 299 293 292 294 294 291 285 288 290 288 290 290 287 286 287 287 287 291 294 293 291 292 290 282 285 286 291 292 293 293 291 289 289 289 289 290 290 290 290 290 291
311 311 311 311 311 310 312 312 313 313 313 313 313 312 314 317 318 318 315 311 303 306 299 293 292 295 285 293 299 293 291 294 298 299 299 300 300 301 302 302 299 299 301 298 300 297 298 295 294 293 293 290 290 288 286 285 282 282 288 285 287 285 285 283 290 292 292 290 286 289 286 286 287 290 291 292 292 290 289 289 289 290 290 290 290 290 290 289
311 311 311 311 311 311 312 312 313 313 313 312 310 310 312 318 316 311 306 303 299 302 299 297 293 287 284 294 287 288 294 293 296 297 298 300 300 300 301 299 300 299 296 297 299 291 295 289 291 285 283 287 287 285 285 281 284 283 284 284 283 285 286 284 284 288 290 290 286 286 285 286 287 289 290 291 292 290 289 289 289 289 289 289 289 290 290 289
311 311 311 312 311 311 311 312 313 313 312 309 308 311 311 312 298 295 294 295 290 285 281 285 287 279 278 287 291 292 294 297 296 296 295 297 299 300 301 302 300 297 289 292 290 292 292 287 288 282 279 282 281 285 283 283 288 286 286 285 284 282 283 283 287 290 290 287 286 285 283 285 287 288 289 290 291 289 288 289 289 288 288 288 288 288 289 289
310 310 311 311 311 311 312 312 313 312 309 302 295 292 290 288 286 282 290 291 286 287 286 288 288 288 287 288 289 294 298 297 293 295 296 298 298 296 297 298 296 295 289 285 288 290 290 283 280 279 282 284 286 288 288 286 288 286 286 285 284 283 284 287 287 289 291 286 285 286 286 286 286 288 289 291 290 289 288 287 287 287 287 287 287 287 288 288
310 310 310 310 311 311 312 313 312 309 307 296 293 289 282 284 279 277 285 288 287 288 287 287 289 287 287 289 291 291 289 292 295 293 295 300 298 295 291 291 289 286 286 288 286 291 289 282 282 284 284 285 286 288 289 288 288 286 284 283 282 283 282 286 286 289 291 286 283 285 284 284 285 288 289 290 289 286 287 286 286 286 286 286 286 286 287 287
310 310 310 311 311 311 312 313 309 307 308 295 295 290 291 292 293 293 288 282 287 287 287 287 290 288 291 291 292 293 291 288 290 292 296 297 293 291 290 288 286 283 286 285 287 285 283 280 284 285 287 288 288 289 289 287 286 286 284 283 282 282 285 287 287 289 289 287 283 285 283 283 285 286 288 287 287 287 288 287 286 286 285 285 285 285 285 286
310 310 310 311 311 311 312 313 307 305 293 293 290 290 291 295 297 296 293 283 282 287 286 288 287 287 289 293 292 294 288 285 284 290 292 294 291 290 288 286 285 285 286 286 282 282 280 282 285 287 287 289 288 288 287 286 286 285 283 282 280 284 283 279 285 287 287 286 283 284 282 283 285 287 287 288 287 287 287 287 286 287 286 285 285 285 284 284
309 309 310 310 311 311 312 313 308 299 294 293 292 291 294 294 292 295 291 279 279 283 286 287 287 288 287 287 292 290 287 286 287 287 295 292 287 289 286 286 284 285 283 285 284 282 281 284 287 289 290 288 286 286 285 284 281 283 284 283 283 283 284 283 282 286 287 287 287 285 282 282 284 282 283 285 286 285 285 286 286 286 286 286 286 285 285 284
309 309 310 311 311 312 312 310 294 293 292 290 289 293 293 292 293 293 288 278 277 280 287 288 289 288 289 293 293 288 286 288 288 290 293 291 288 288 286 289 286 282 284 286 285 283 283 286 287 289 288 288 286 284 283 285 282 282 283 284 284 284 282 283 284 283 282 281 285 283 275 277 283 283 283 284 283 282 283 282 283 284 284 284 283 283 284 285
309 309 310 311 311 310 309 293 288 292 291 289 291 294 293 293 293 292 278 265 267 277 286 281 290 286 294 289 291 288 288 283 289 291 294 293 295 289 287 283 285 281 284 285 283 284 284 287 286 286 286 286 286 284 284 285 283 282 281 286 286 285 284 283 282 283 278 277 283 286 276 272 281 281 282 282 281 281 282 282 282 283 283 283 283 283 283 283
309 309 310 310 311 309 290 286 291 288 285 287 293 293 293 293 292 291 282 262 264 279 277 286 287 285 292 289 288 288 275 280 290 292 291 294 289 292 284 280 283 284 287 286 283 280 286 284 285 286 285 284 283 283 285 285 283 279 284 285 286 285 283 282 281 281 279 282 283 284 282 275 275 279 282 282 281 280 281 281 282 282 283 283 283 283 283 283
309 309 309 310 310 307 292 293 290 288 287 291 293 293 292 292 292 288 270 261 261 281 275 281 287 293 290 289 289 283 282 286 281 287 291 292 291 287 286 280 280 281 284 286 276 283 284 282 282 282 283 282 281 281 284 285 283 282 286 287 284 284 283 283 282 280 279 279 276 280 282 277 276 279 282 282 279 279 280 280 281 282 283 283 284 284 283 283
308 309 310 310 309 306 294 293 289 288 292 293 292 293 292 289 285 276 262 262 271 272 291 283 294 289 287 288 285 285 284 286 279 285 290 291 292 287 282 282 282 282 284 285 279 282 284 285 284 283 282 279 282 284 288 288 283 286 290 290 287 285 284 283 280 279 278 276 272 277 279 274 275 279 280 279 280 279 279 280 281 282 282 283 283 284 284 283
309 309 310 310 302 294 293 291 291 293 294 293 291 290 289 285 278 272 264 258 276 270 282 283 284 281 284 280 281 284 282 282 284 285 287 284 287 290 287 287 283 280 281 283 282 283 285 290 291 284 281 282 285 285 288 290 289 291 290 286 285 284 282 281 279 278 278 272 273 276 277 276 270 276 277 277 278 280 280 281 282 283 283 283 283 283 284 284
308 309 309 309 293 295 290 286 288 293 292 291 291 290 284 275 267 259 260 265 277 271 281 280 279 284 279 277 276 282 281 282 282 282 281 285 284 285 285 282 285 279 280 280 279 280 283 284 284 284 287 286 288 287 288 289 288 286 283 282 282 280 280 277 274 277 270 264 273 275 275 275 268 273 278 277 280 283 282 281 281 282 282 282 283 283 283 283
308 309 310 305 299 297 289 289 292 292 290 290 289 280 278 268 270 268 262 279 267 275 274 276 280 279 278 279 278 278 278 280 281 280 278 278 278 279 279 276 277 269 271 273 274 280 280 281 284 285 287 285 281 284 284 286 285 284 281 279 275 267 269 267 267 267 262 263 273 275 276 273 272 275 276 280 282 283 284 284 283 282 283 282 282 283 283 283
308 308 309 303 302 291 292 292 293 291 290 290 282 278 270 266 262 262 264 269 266 275 275 281 278 278 277 276 276 278 278 276 280 280 279 279 277 277 279 279 279 275 267 275 274 273 277 282 283 283 285 285 283 279 279 282 282 281 278 273 267 264 261 262 261 261 262 270 275 275 275 270 274 275 278 281 282 284 284 285 285 284 284 283 283 283 283 282
308 308 300 299 298 296 297 295 292 292 292 287 280 278 271 270 263 277 264 264 270 277 278 277 279 278 276 275 276 277 275 277 278 278 279 274 277 274 277 280 280 277 275 275 272 271 269 271 278 280 278 284 281 281 281 281 280 280 279 276 272 264 264 263 260 261 264 266 274 275 271 265 270 273 279 282 283 284 285 286 286 285 284 284 283 282 282 281
306 300 295 294 291 293 293 294 291 293 289 285 280 269 270 259 261 264 263 263 268 275 277 278 273 273 273 274 276 278 278 273 278 276 276 276 272 272 273 276 280 279 277 270 274 269 272 272 278 281 282 281 280 282 282 279 278 279 279 279 276 272 271 267 264 262 261 266 263 265 268 271 274 279 281 281 282 282 284 285 285 284 284 283 283 282 282 282
300 292 294 290 292 294 294 295 289 292 289 284 278 273 267 264 266 269 270 278 277 274 277 275 274 270 268 273 273 276 279 274 277 271 269 274 275 275 277 277 278 278 275 272 274 266 271 271 277 279 280 279 279 281 281 281 274 279 277 273 277 278 274 267 268 270 266 263 262 264 272 276 276 278 280 281 280 282 282 284 284 284 284 282 282 282 282 282
290 292 288 290 292 295 294 292 293 286 285 283 276 267 264 270 273 275 282 278 278 278 271 268 271 270 265 266 269 275 276 275 275 271 270 272 267 277 276 277 279 279 278 277 271 277 267 271 275 278 277 280 280 279 281 281 280 277 276 276 278 276 271 267 263 259 256 261 262 269 269 272 271 267 278 280 279 281 281 282 283 284 283 282 283 283 283 282
290 291 291 289 292 294 293 291 287 288 285 282 276 277 267 272 278 278 279 278 279 276 271 269 270 275 269 266 269 274 276 271 273 266 262 273 265 278 277 277 279 278 279 276 273 273 273 265 273 276 277 279 280 279 281 282 282 279 279 278 278 270 270 270 265 260 259 256 256 263 271 271 272 273 277 277 278 280 280 281 280 281 282 283 283 283 282 282
287 284 282 289 293 294 293 292 288 284 280 276 267 279 273 272 276 276 278 280 279 278 272 274 268 273 274 271 270 273 273 269 273 266 260 269 264 278 278 278 277 280 279 277 274 275 273 263 269 274 277 277 277 278 269 275 280 279 278 276 275 273 268 264 266 262 264 257 259 263 268 268 276 275 277 279 280 281 281 280 280 281 282 284 284 284 283 282
287 283 280 289 294 293 293 290 287 281 277 272 268 269 270 271 276 278 279 281 276 276 274 275 272 270 273 273 274 269 273 273 272 269 268 273 271 277 278 280 277 278 278 278 278 278 272 270 261 273 276 275 271 275 273 274 273 275 275 273 274 272 273 272 266 270 264 259 253 259 260 267 275 277 279 280 281 282 282 281 281 281 281 282 284 284 283 282
284 279 280 290 294 293 290 288 281 274 271 267 269 270 271 276 280 280 280 281 278 277 279 277 276 272 274 273 271 273 271 272 273 270 271 271 273 266 276 279 279 277 278 274 277 276 263 267 264 267 270 272 273 277 277 276 276 274 273 273 273 270 270 266 264 270 261 263 260 257 262 267 274 279 281 281 282 282 283 283 282 281 281 281 282 284 284 283
280 274 281 291 292 290 286 279 273 267 271 271 273 275 277 285 275 278 278 279 281 279 275 277 277 276 273 272 275 273 272 269 271 267 271 272 277 274 278 278 278 278 276 273 275 278 275 267 264 266 268 270 276 279 277 278 277 277 275 274 272 270 264 255 261 263 262 268 264 259 262 261 273 277 278 281 281 282 282 282 282 281 280 280 281 282 284 284
279 277 288 290 291 288 283 273 274 275 272 273 275 279 279 280 278 278 276 278 277 279 275 275 276 276 276 277 274 270 274 270 273 270 274 274 274 276 278 278 279 278 275 273 276 276 282 263 262 262 266 273 273 272 274 269 277 275 274 274 273 271 272 265 261 264 262 262 265 261 259 264 274 277 278 279 279 280 280 281 282 281 281 281 280 281 282 283
280 280 284 290 291 286 279 270 270 270 271 273 274 275 277 280 277 278 276 274 279 277 276 277 276 277 276 277 277 274 276 266 274 273 270 275 275 279 277 278 279 277 277 275 275 275 267 266 263 257 256 257 261 265 269 268 270 267 272 274 275 275 274 269 263 260 265 262 262 261 259 259 275 279 278 279 279 280 280 281 281 282 281 281 281 281 281 282
281 281 281 284 291 285 273 269 275 271 272 272 275 275 275 275 280 281 280 278 277 277 274 274 279 278 275 276 274 275 277 274 269 274 275 276 276 278 278 277 279 277 279 283 285 279 270 265 261 259 258 261 261 260 261 261 263 271 273 274 276 275 273 272 269 260 262 265 266 262 260 269 273 277 279 278 279 279 280 280 280 280 282 282 282 281 281 281
279 277 277 280 283 283 277 273 274 275 272 269 271 275 274 274 280 280 280 278 280 278 277 278 274 279 273 274 272 271 274 275 271 271 273 273 275 276 279 277 278 278 284 285 282 276 265 268 260 255 253 258 261 265 269 276 270 266 269 272 274 274 273 272 267 262 263 259 264 266 266 271 273 275 278 279 278 279 281 281 281 282 282 282 282 282 282 281
279 274 273 275 274 280 272 275 275 273 275 275 270 274 273 275 277 279 282 277 281 279 276 276 272 273 274 275 272 272 274 272 273 272 274 274 275 276 277 276 277 281 285 282 281 269 260 263 269 266 263 264 270 270 273 275 270 269 270 270 273 273 273 269 265 262 268 265 264 267 271 272 274 275 276 278 279 279 280 281 281 281 282 283 283 283 285 282
277 276 273 277 277 276 272 276 275 276 276 275 272 276 274 275 277 275 280 280 280 279 277 276 272 274 275 275 274 268 272 269 269 270 275 275 275 276 274 277 276 279 280 276 278 272 264 266 266 266 263 268 270 271 273 272 272 272 272 270 270 272 271 265 263 268 269 265 267 270 270 271 275 275 275 277 280 281 281 282 283 283 283 282 281 281 282 282
278 276 276 281 276 273 273 277 278 277 276 274 275 276 273 274 275 277 277 278 276 275 278 272 274 275 274 273 274 271 273 266 267 270 272 271 272 271 270 272 277 276 277 273 273 268 265 263 265 267 267 267 265 269 271 269 269 268 270 273 274 271 271 272 269 270 271 270 272 272 272 273 276 277 278 279 280 280 281 281 279 280 281 282 281 281 282 282
278 277 277 277 278 274 276 277 277 276 275 281 271 275 276 273 275 277 277 276 273 276 278 275 275 274 273 272 272 273 275 275 275 271 276 275 266 273 272 274 273 275 275 273 272 268 271 268 277 267 265 263 266 272 272 270 266 266 270 272 273 273 272 273 270 270 269 271 272 272 272 273 278 278 280 281 280 280 279 279 280 281 281 281 281 281 281 282
282 280 282 282 275 277 280 278 278 274 272 275 271 276 279 276 276 277 278 280 278 276 278 276 276 275 275 273 272 274 277 276 276 277 278 276 271 276 272 270 276 271 272 271 268 268 270 266 262 259 266 263 266 267 268 266 266 266 269 270 270 269 268 269 271 273 271 270 267 269 267 272 277 276 277 277 278 278 278 279 280 280 281 280 280 281 281 281
280 283 281 280 276 281 279 278 276 275 273 275 276 276 279 278 278 278 276 280 280 280 279 278 276 275 274 274 272 276 278 277 277 278 277 277 278 277 277 277 277 275 272 274 273 270 266 262 265 261 264 260 263 266 265 265 264 266 267 270 272 272 272 273 274 275 276 275 271 265 272 276 276 277 278 278 278 277 278 278 279 279 280 280 280 281 282 282
Wind_Speed
15 15 15 14 14 16 15 14 16 16 16 16 15 15 14 14 14 14 14 14 14 14 14 14 14 14 13 14 15 14 12 3 3 3 6 3 9 12 12 13 14 13 11 5 8 10 8 9 10 11 9 2 2 1 3 0 1 1 3 5 4 3 5 3 5 4 2 4 3 6 6 14 10 2 4 11 18 15 16 18 11 17 17 15 13 15 14 13
14 14 15 15 16 15 15 15 16 16 16 16 15 14 14 13 13 13 13 13 13 13 13 13 13 12 12 12 13 13 6 2 3 3 3 8 15 14 13 13 14 13 7 6 6 5 6 9 9 9 7 3 0 2 1 2 1 3 2 3 7 3 2 3 3 7 8 5 8 11 9 9 11 2 1 15 12 14 19 16 14 15 16 17 17 15 15 15
14 14 15 15 15 15 15 15 16 16 17 16 15 14 13 12 12 13 13 12 12 12 13 13 12 12 11 11 12 10 3 2 2 6 6 13 16 15 14 14 14 12 3 3 3 3 2 6 7 5 2 1 1 3 0 2 3 3 4 4 1 4 4 6 10 8 16 12 12 16 10 20 8 8 6 17 13 16 18 9 14 16 16 16 13 13 13 17
14 14 15 15 15 15 15 16 16 17 17 16 15 14 13 12 12 12 12 12 11 12 12 12 12 12 12 12 12 3 2 2 1 3 4 13 15 14 14 14 14 6 2 0 3 3 3 3 4 2 1 0 3 0 2 4 2 2 2 3 2 3 8 5 15 14 11 16 15 15 15 22 16 9 5 13 22 16 12 13 13 12 12 13 13 13 14 17
15 15 15 15 16 16 16 16 17 17 17 16 15 15 14 13 13 12 12 12 12 11 11 12 13 13 14 14 9 2 2 4 2 3 8 13 14 14 14 14 14 5 3 3 3 1 1 1 4 1 1 2 2 1 2 1 1 2 5 5 5 2 8 7 13 14 14 12 19 15 19 12 11 22 16 19 19 8 7 9 11 12 11 12 14 13 16 19
16 16 16 17 17 17 17 17 17 17 17 17 16 16 16 15 14 13 12 13 13 11 11 11 12 14 15 11 3 3 4 1 2 6 10 15 15 14 15 14 14 5 3 4 2 4 5 4 4 2 1 1 0 2 2 1 1 1 1 2 2 3 11 6 12 13 18 14 18 19 12 14 21 15 12 26 17 10 9 9 10 11 12 12 14 15 19 19
17 17 17 17 18 17 17 17 18 18 18 18 17 17 16 16 15 14 13 12 13 12 10 9 9 13 14 5 2 6 3 3 3 9 13 14 16 16 15 10 7 5 3 3 5 3 2 3 2 1 1 0 1 1 5 1 1 1 3 4 3 5 14 8 13 17 22 24 18 16 13 18 19 25 7 23 12 11 9 8 10 11 13 17 21 19 18 18
17 18 18 18 18 18 18 18 18 18 18 18 18 18 17 17 16 15 13 12 11 12 10 8 7 10 9 2 3 4 3 4 8 7 11 14 12 11 9 6 1 3 1 2 2 2 2 2 2 1 1 2 1 5 1 1 0 4 0 4 2 5 12 13 14 24 28 23 21 25 24 15 23 16 16 18 13 12 11 6 8 12 19 20 20 19 17 17
18 18 18 19 19 19 18 18 18 19 19 18 18 18 17 17 17 16 15 12 12 11 11 6 6 7 4 3 2 1 2 4 8 9 8 8 10 9 3 3 1 1 1 2 2 1 1 1 2 3 1 1 3 3 3 2 1 3 5 1 8 9 18 16 16 21 25 11 23 25 14 7 13 16 23 12 11 8 7 11 13 12 20 18 19 18 16 16
19 19 19 19 19 19 19 18 19 19 19 20 20 19 19 18 17 16 14 12 11 11 11 4 4 3 4 3 3 6 4 7 6 7 9 8 9 7 7 5 1 1 1 1 2 3 1 0 1 1 2 2 1 3 1 3 3 4 6 12 16 16 17 14 17 13 15 12 26 26 19 16 17 5 9 12 11 6 11 15 15 16 17 18 16 15 15 17
19 19 19 19 19 19 19 18 18 19 19 20 21 20 20 21 18 17 14 11 11 10 12 2 3 5 2 2 3 3 3 6 6 8 9 8 7 6 6 7 2 1 3 1 2 3 3 4 2 2 2 2 2 5 2 4 2 7 13 17 15 17 17 14 21 18 21 10 26 31 21 19 11 18 10 9 8 8 11 16 14 13 15 15 14 14 13 15
19 19 19 19 19 19 19 19 19 19 20 20 21 21 20 20 19 16 14 13 10 12 12 2 4 4 3 2 1 1 6 3 7 6 8 5 5 5 7 6 3 5 6 4 1 2 5 4 2 1 2 2 1 0 2 1 4 14 19 18 17 21 14 3 9 4 23 10 15 18 27 22 17 9 9 7 5 7 13 15 14 15 13 12 11 10 11 11
19 19 19 19 19 19 19 19 19 20 20 21 21 21 20 21 19 15 13 11 10 12 10 4 4 4 2 3 4 7 3 6 8 9 8 3 4 1 0 4 2 2 3 3 2 3 4 2 3 3 1 0 1 2 1 0 3 16 15 14 15 14 11 3 2 4 5 2 6 3 10 8 9 10 8 8 3 4 17 15 13 11 12 12 12 13 12 12
18 19 19 19 19 20 19 19 20 21 21 22 21 21 20 20 17 14 12 12 11 11 7 4 4 3 2 1 5 5 4 8 7 5 6 5 5 3 1 5 4 3 3 5 4 3 3 1 3 2 1 2 3 4 2 3 7 13 13 9 9 15 5 6 3 6 11 8 6 16 13 5 8 9 9 8 7 3 18 12 11 11 11 11 12 13 13 14
18 18 19 19 19 19 19 19 19 20 21 21 21 20 19 17 15 13 11 10 13 11 6 6 3 2 5 4 5 9 11 4 8 10 9 5 5 4 1 2 4 3 3 4 2 1 3 1 3 1 2 4 1 1 2 4 2 11 12 8 2 12 6 11 9 9 12 8 25 28 12 8 8 7 6 5 7 5 17 12 10 10 11 11 11 13 13 12
18 18 18 19 19 19 19 19 18 19 20 22 20 19 16 13 11 12 13 14 11 11 3 3 6 3 1 5 5 10 3 12 12 12 7 2 2 3 2 5 2 1 3 1 3 2 3 3 1 3 2 2 2 3 7 10 4 1 8 8 10 13 8 7 11 5 7 9 8 19 12 10 7 6 5 5 6 8 16 13 11 12 11 11 11 11 11 11
18 18 18 18 19 19 18 19 18 19 20 21 22 15 12 10 9 8 11 14 7 4 7 3 2 1 3 2 4 10 8 8 8 5 9 3 4 4 1 5 1 1 1 3 5 6 3 1 1 1 3 1 0 2 10 9 6 4 4 6 3 14 9 9 10 10 11 21 13 21 16 10 9 7 7 6 4 6 14 11 11 10 10 11 10 11 11 11
17 17 17 18 18 19 18 18 18 18 20 22 17 11 6 6 6 6 8 7 4 1 1 2 4 3 3 9 11 12 11 9 9 10 7 6 1 1 1 1 1 3 6 4 5 3 1 1 1 3 3 5 3 5 9 14 11 13 13 12 10 14 12 11 8 6 22 22 23 17 22 12 9 8 7 6 4 5 12 9 10 10 10 10 10 9 11 12
17 17 17 18 18 19 19 18 18 18 20 20 12 4 6 6 5 5 5 6 6 5 5 10 9 8 2 13 13 10 9 13 7 4 17 14 3 1 0 1 2 6 1 2 1 3 1 2 4 8 5 7 4 2 4 4 11 14 17 12 13 14 11 15 14 7 24 22 15 14 15 13 10 8 8 7 5 7 11 9 9 9 9 9 10 10 10 9
18 18 18 18 18 18 18 17 17 16 19 9 8 2 5 6 6 1 7 6 6 8 3 2 0 3 4 7 9 11 11 5 10 17 18 18 6 3 2 0 2 2 5 3 2 1 2 8 6 1 5 7 8 4 1 2 18 17 18 20 18 20 15 14 15 12 27 23 15 16 17 14 11 8 7 4 4 9 11 11 9 8 9 10 10 11 10 10
18 18 18 18 18 18 17 16 14 12 17 5 3 8 2 0 1 3 5 6 2 1 5 4 1 0 3 6 6 10 12 11 11 16 10 10 1 2 10 4 6 11 6 2 3 2 2 9 6 6 4 6 8 1 9 18 22 20 17 22 18 21 14 10 9 1 9 24 11 14 20 16 11 8 7 5 6 12 10 10 11 11 10 10 11 10 10 8
18 19 19 18 18 17 17 14 10 10 9 5 10 7 2 1 1 1 1 3 4 1 6 5 2 9 4 2 4 3 4 6 20 19 16 15 8 8 6 9 11 11 7 2 3 7 9 6 10 14 9 6 4 9 14 18 23 19 18 16 18 10 18 14 15 12 15 25 11 12 21 14 12 11 9 9 10 10 10 10 9 9 10 9 9 8 8 9
18 19 19 19 18 17 16 11 10 11 4 7 6 3 2 2 1 1 1 2 2 2 4 12 13 11 13 10 4 8 11 10 5 15 15 10 11 6 1 7 9 11 16 11 8 7 11 9 16 15 8 9 15 18 18 13 14 16 13 15 15 15 16 9 4 5 5 13 11 14 20 11 10 10 9 8 8 8 9 10 9 8 10 10 9 7 7 7
18 18 19 19 19 18 16 6 6 7 5 7 6 3 1 2 2 2 2 1 1 6 5 3 4 7 9 8 7 6 4 4 8 17 13 8 7 5 3 4 6 13 12 13 17 14 5 8 14 7 6 19 20 14 10 12 10 9 9 16 16 11 9 16 12 15 21 17 18 19 15 9 6 7 7 7 8 8 6 8 9 9 8 7 6 7 7 7
18 18 18 20 20 19 14 5 6 1 2 3 2 1 2 2 2 3 2 2 5 5 1 0 2 4 7 3 3 3 4 1 7 2 7 7 11 4 2 0 2 8 4 9 15 17 17 17 13 10 11 16 18 11 5 13 12 7 5 10 17 19 21 23 23 19 10 5 4 3 7 6 4 6 6 3 4 6 3 6 6 6 6 5 7 6 5 5
17 18 18 18 20 20 8 3 2 0 2 2 1 2 1 2 2 2 6 5 4 4 7 11 2 9 5 13 11 6 1 5 5 4 5 10 5 1 2 6 2 6 3 5 9 6 4 15 8 8 11 14 13 9 4 2 13 10 5 5 22 23 24 19 14 12 6 7 4 1 9 3 0 3 3 3 4 4 3 5 4 4 4 4 4 4 4 4
17 17 17 17 18 16 4 1 1 1 2 1 1 0 1 2 1 4 2 4 8 6 5 5 3 2 5 8 9 5 7 8 10 10 18 15 7 4 11 7 3 3 0 0 3 9 8 15 10 13 13 13 9 11 6 2 14 8 3 10 16 17 14 7 8 9 10 5 6 12 6 8 4 1 3 4 4 3 4 3 4 3 4 3 3 3 3 4
16 16 16 16 16 8 1 0 2 2 1 2 0 1 2 5 5 1 4 1 6 5 4 6 1 3 5 12 9 5 5 8 5 11 9 12 4 6 11 5 7 11 8 2 17 5 3 12 14 12 12 12 8 2 1 3 10 10 8 4 6 9 11 13 13 10 5 10 7 5 5 6 2 2 1 1 5 1 2 3 2 2 3 3 2 2 3 3
17 16 15 15 13 5 3 2 2 2 1 1 1 1 2 3 3 6 4 6 4 1 1 1 4 4 13 11 7 7 3 6 3 5 10 6 15 2 7 6 0 2 10 15 12 2 2 4 6 1 9 8 4 3 11 24 18 4 8 9 7 10 10 10 8 8 3 8 2 4 4 6 1 3 5 1 2 4 3 3 3 3 2 3 1 1 1 2
18 16 15 15 7 4 3 2 1 0 0 0 1 2 3 1 4 8 6 6 1 5 4 3 4 8 8 9 7 12 12 5 3 5 6 2 14 14 1 0 4 2 8 6 11 6 3 4 5 10 7 2 7 7 4 16 19 14 9 12 6 6 6 4 6 3 7 7 2 3 2 5 3 6 7 6 6 5 5 1 1 2 1 1 1 1 1 1
18 17 15 11 3 1 1 3 2 1 1 1 3 4 1 9 6 5 5 2 2 3 3 4 7 8 11 11 8 11 5 9 12 11 14 17 18 18 15 4 8 3 9 8 7 3 11 12 8 4 9 2 2 12 10 7 5 5 3 4 8 7 6 7 6 6 7 1 5 2 1 1 3 3 6 4 2 10 9 7 6 5 5 4 3 2 1 2
19 17 16 7 1 0 3 6 1 2 2 3 2 3 3 1 7 9 1 5 2 7 2 6 3 4 11 5 6 11 8 6 9 9 8 7 9 16 13 8 7 6 9 8 7 4 14 13 6 7 5 17 7 9 6 8 6 7 6 9 8 1 5 2 9 7 2 2 1 1 2 3 2 2 3 3 6 8 8 9 10 8 6 5 4 4 3 2
19 17 14 2 1 1 1 2 3 2 3 3 3 3 8 8 6 3 2 5 1 1 5 1 6 8 9 4 10 8 2 9 7 10 2 4 7 7 8 14 9 4 4 6 4 10 7 7 22 13 6 12 6 6 4 7 7 6 5 2 6 5 6 2 2 1 2 4 2 1 2 2 2 2 3 7 7 9 7 8 9 9 9 8 6 5 4 3
17 13 5 3 1 2 3 1 3 3 2 2 4 8 8 14 1 2 0 2 3 3 3 4 10 9 7 8 6 7 8 1 9 5 9 4 14 12 12 12 15 10 5 7 9 6 9 9 12 13 5 8 5 6 2 1 3 3 1 1 5 7 6 3 2 2 4 4 2 2 1 2 3 4 4 7 6 5 6 8 8 7 8 8 6 5 5 4
15 4 1 3 2 1 4 1 4 3 2 1 13 4 13 2 1 1 3 3 4 3 3 3 4 4 6 5 4 5 1 4 9 5 11 15 9 4 8 10 12 7 2 5 5 3 2 3 5 3 3 3 5 5 0 1 5 2 1 3 6 1 3 6 6 5 2 1 2 4 1 1 2 0 2 2 2 3 4 6 4 5 4 4 4 5 5 5
6 3 1 2 4 7 6 1 3 2 1 10 11 13 8 1 0 1 0 3 1 3 9 7 0 6 3 7 2 9 8 4 10 5 5 5 4 11 8 3 9 10 7 5 2 3 1 7 4 8 3 4 5 2 3 1 1 1 3 3 1 3 7 6 2 3 3 5 0 1 3 2 3 2 3 3 4 5 4 5 6 6 6 5 6 6 5 5
4 5 4 4 5 9 6 2 2 3 6 10 11 6 2 0 3 3 4 2 3 3 2 6 8 4 6 5 4 10 9 4 7 5 8 3 5 11 8 6 3 8 5 1 3 0 3 2 2 7 8 4 4 1 1 6 1 3 6 3 1 3 6 3 3 3 5 3 3 2 3 2 1 3 4 5 5 8 7 7 7 7 7 7 7 7 7 7
1 1 0 3 5 7 4 3 5 7 8 13 12 7 1 2 0 1 1 3 1 1 4 3 1 6 1 2 8 8 14 7 11 6 2 7 2 4 5 7 5 7 9 4 2 3 2 5 4 3 2 7 7 3 6 8 9 6 6 1 1 0 2 3 6 1 1 1 2 4 1 3 6 4 3 9 10 11 10 8 6 7 8 9 8 8 8 6
2 2 2 4 6 5 5 1 11 9 8 14 2 8 1 1 3 1 1 3 1 0 4 3 0 3 1 2 2 3 7 7 6 3 3 4 5 4 7 3 6 11 9 7 4 1 3 3 3 4 6 5 5 7 5 9 10 4 2 3 1 5 2 2 0 3 6 1 2 2 2 4 7 6 12 14 15 13 11 8 11 12 12 10 9 8 8 8
3 2 2 3 8 5 5 6 10 10 11 9 1 2 1 1 3 6 2 0 1 2 1 2 2 1 3 0 2 3 4 5 4 3 4 4 2 2 6 4 3 11 7 4 3 1 1 1 3 6 7 4 6 4 1 3 4 8 8 5 5 3 1 4 1 2 2 5 3 2 2 7 7 6 10 14 13 13 13 13 12 10 10 10 10 10 9 9
1 3 1 4 12 5 4 17 14 10 7 1 2 2 1 1 2 2 3 2 0 2 2 2 0 2 1 2 3 0 2 4 5 3 2 2 2 2 2 6 5 7 5 3 7 7 2 5 4 3 8 6 2 1 1 1 2 1 2 2 2 2 0 1 0 1 3 2 2 4 4 7 8 2 9 10 10 10 12 13 12 11 10 10 9 8 9 8
1 2 4 5 10 6 9 11 5 1 6 4 1 1 1 4 1 3 2 2 2 1 1 3 1 2 1 1 1 3 1 2 2 2 2 3 3 2 4 7 6 4 2 2 2 4 2 2 7 6 1 1 2 1 1 1 1 0 3 0 2 2 5 4 2 2 2 0 4 2 0 5 3 2 3 5 6 8 10 9 10 9 9 9 9 9 8 9
4 1 3 5 5 3 13 8 3 6 5 2 2 1 2 1 1 2 1 3 1 1 2 3 1 1 1 0 1 2 1 2 2 1 1 1 2 3 5 7 7 5 3 4 0 2 6 5 4 2 6 5 4 1 1 6 0 2 2 1 2 1 0 3 2 3 4 0 1 1 0 6 2 1 3 4 5 5 5 7 11 8 7 8 8 8 8 7
1 0 4 3 7 3 8 4 3 2 2 2 3 0 2 1 1 3 1 1 1 2 1 1 1 1 0 0 0 2 2 1 2 3 2 0 2 1 3 6 7 6 4 2 1 3 1 2 4 1 3 4 2 3 1 2 3 2 1 3 1 2 2 1 3 0 2 4 4 6 3 2 2 4 3 1 1 3 6 7 6 8 7 7 8 8 7 8
2 1 0 7 11 8 3 3 10 6 2 4 2 2 1 2 1 0 0 2 0 1 1 1 0 2 1 1 1 0 2 2 0 2 1 1 2 1 5 6 5 5 3 3 4 2 4 0 1 1 1 1 1 2 2 2 1 2 0 2 1 3 1 0 0 2 1 1 3 1 5 8 6 4 4 3 1 3 5 4 4 5 6 7 7 8 9 8
0 2 5 7 8 8 6 1 5 7 8 3 4 0 1 1 1 2 3 1 0 0 2 1 0 1 1 2 3 5 4 4 3 1 3 3 3 2 2 7 6 4 11 4 5 4 3 2 2 2 3 4 4 2 3 1 1 0 1 1 2 1 2 4 4 2 3 2 4 8 5 5 9 4 4 7 4 6 7 6 7 7 8 7 6 7 8 10
1 3 0 1 3 8 3 4 4 3 5 4 4 2 2 1 1 1 0 0 1 1 1 3 1 1 1 2 0 1 2 1 5 1 2 1 2 2 4 3 5 11 14 2 5 4 3 3 1 3 4 3 2 3 2 1 2 4 1 3 1 1 1 2 2 2 4 3 7 4 3 1 9 2 6 7 8 7 8 7 7 7 8 10 10 9 9 8
1 1 2 0 2 2 2 2 2 5 2 2 1 1 3 2 0 1 1 1 0 2 0 1 7 1 0 2 1 1 3 1 2 1 4 1 3 4 3 3 4 8 7 2 4 3 2 2 4 4 7 6 6 6 3 1 2 3 5 4 4 5 3 5 4 7 4 4 9 2 1 2 7 4 5 8 9 11 11 12 11 9 7 6 6 8 10 11
3 2 1 0 2 1 1 1 4 6 5 3 2 2 2 2 2 1 1 0 1 1 1 0 1 2 2 1 1 1 0 2 2 1 0 2 1 4 4 3 1 6 6 4 5 2 3 1 2 2 6 6 3 1 3 4 2 1 6 9 8 6 8 8 7 6 8 9 8 7 6 13 16 14 10 13 9 8 9 5 4 6 10 9 7 9 11 11
2 3 0 3 6 3 1 3 2 4 4 1 3 0 4 3 3 0 1 1 0 0 1 2 2 1 1 0 0 1 1 2 1 1 1 0 4 1 1 2 5 4 5 3 2 6 1 1 1 1 3 6 1 0 4 2 2 6 6 7 7 7 6 9 4 5 4 8 11 10 10 16 12 6 11 9 7 6 5 7 10 10 9 9 9 10 11 11
1 1 4 9 5 1 1 1 1 2 2 1 4 2 2 2 2 4 1 0 0 1 0 2 4 2 1 1 1 1 2 2 2 2 1 2 1 1 1 1 0 6 6 5 3 6 4 0 2 2 3 3 1 2 2 2 2 7 12 11 9 6 6 6 7 8 7 9 1 1 3 11 9 3 4 4 0 3 7 9 9 9 9 8 8 10 10 10
2 1 5 6 5 1 0 0 1 1 1 2 3 3 2 7 3 5 3 0 0 0 1 5 5 4 0 0 1 3 2 2 1 1 1 1 0 1 1 0 1 2 3 2 1 2 1 1 1 2 3 2 3 1 4 6 5 5 9 11 12 8 5 1 4 4 10 5 5 5 11 5 3 1 1 2 5 5 6 8 9 9 8 7 9 10 11 10
Wind_Direction
18 18 16 13 8 2 355 352 352 349 347 347 346 344 341 340 341 340 339 341 341 340 342 344 346 345 345 344 341 344 2 47 20 17 37 276 317 343 340 342 343 336 354 5 343 3 343 343 346 348 350 30 255 104 247 241 176 82 173 135 184 172 157 218 159 166 123 106 7 39 359 104 93 29 88 48 42 63 52 51 32 43 51 51 48 49 49 44
14 11 8 7 4 0 353 354 350 348 346 345 345 343 341 342 342 340 339 340 343 344 343 344 346 346 343 340 340 339 9 15 33 35 357 318 332 334 340 342 340 343 9 356 343 339 352 331 331 348 346 354 296 177 126 251 134 147 130 150 191 126 194 160 137 116 108 92 107 67 31 64 40 71 330 76 26 52 56 46 42 51 46 49 42 42 45 48
14 10 7 4 0 357 353 350 348 347 345 342 342 341 343 342 343 342 341 339 338 340 345 346 347 345 339 336 332 340 20 356 38 11 323 327 328 333 338 342 338 340 66 306 301 275 271 286 295 331 317 295 305 204 69 259 136 229 113 164 136 217 74 68 93 84 107 132 88 80 53 62 21 68 65 87 73 44 45 30 42 46 45 45 40 40 45 49
12 9 5 0 358 356 355 350 346 345 342 342 340 340 339 340 341 343 343 340 337 336 339 347 347 345 340 332 327 1 85 66 22 286 287 312 331 330 339 335 335 3 35 231 252 280 282 290 283 206 293 21 290 84 137 251 130 262 88 130 209 213 96 81 95 102 102 101 90 87 77 64 40 31 73 116 68 41 45 38 59 58 57 58 51 45 46 47
11 7 2 357 356 355 353 350 345 343 342 341 340 338 337 336 336 339 342 342 341 340 337 342 347 347 341 338 349 87 77 54 258 299 283 317 329 331 333 333 330 356 355 273 334 290 343 295 348 332 139 264 346 68 260 309 199 81 176 186 172 127 82 105 98 99 98 88 91 74 69 92 82 52 45 71 86 58 34 47 58 64 62 61 56 49 51 49
9 4 1 357 355 354 351 348 345 344 344 342 340 338 335 332 332 331 334 335 339 342 338 339 346 344 343 351 66 58 77 305 294 311 300 314 324 327 326 327 331 357 27 24 37 334 24 345 29 34 354 117 231 133 269 164 100 130 294 179 188 116 118 125 104 107 96 81 81 76 83 92 79 74 45 71 69 80 64 59 68 70 70 73 64 53 50 49
7 2 0 357 355 353 351 349 347 345 342 340 338 334 331 329 324 326 325 329 331 337 343 341 348 344 341 28 53 76 95 242 290 282 308 309 318 322 319 312 346 14 44 36 20 44 340 11 48 319 330 27 289 166 270 4 51 109 165 227 186 114 122 119 102 101 89 84 81 96 88 73 89 71 40 67 49 65 76 65 66 76 70 59 55 51 52 51
5 2 359 358 355 353 351 349 347 344 340 337 335 332 330 327 324 320 320 321 326 329 336 348 352 345 348 44 34 346 39 293 281 284 296 307 315 311 323 316 352 38 38 105 81 44 354 47 53 289 74 154 234 160 269 152 69 176 266 236 142 75 131 117 111 98 92 95 96 78 68 67 69 92 67 68 58 44 24 34 56 66 63 60 59 54 53 52
4 2 359 357 355 353 350 348 345 342 338 335 334 332 330 327 326 318 315 315 321 323 334 346 5 341 67 87 89 47 304 276 285 288 292 304 306 307 338 316 42 350 242 106 117 148 68 270 62 45 241 8 12 6 309 141 219 180 203 62 80 86 116 118 103 97 102 109 91 75 70 56 100 79 50 27 60 70 74 56 38 44 63 60 61 57 54 52
4 2 360 356 353 351 350 346 345 342 338 336 336 334 332 329 323 319 313 313 315 324 328 6 18 38 57 72 40 40 262 250 290 307 307 305 309 311 305 262 283 194 165 240 83 96 110 193 138 152 145 292 320 228 324 107 227 162 95 108 98 106 103 110 102 83 88 96 90 82 57 39 26 93 63 28 359 32 65 63 54 44 59 63 61 60 53 52
3 1 358 355 351 350 348 346 343 342 339 337 335 336 334 330 324 321 319 321 322 324 328 13 73 66 50 81 61 350 257 15 315 317 310 318 316 312 290 293 260 198 174 214 209 155 151 127 132 135 56 232 73 281 169 229 63 99 114 93 93 91 92 99 104 118 100 67 92 90 68 53 24 57 62 48 37 8 56 63 59 59 54 59 59 59 57 54
3 0 357 354 352 348 348 345 344 341 341 337 335 336 335 329 326 325 325 323 330 334 330 37 94 105 76 69 92 302 295 292 313 310 314 329 314 285 279 255 226 178 148 191 201 159 130 144 145 87 180 340 223 178 234 321 84 132 112 102 111 103 95 45 100 94 107 146 104 80 62 31 23 52 40 37 29 59 65 57 58 58 53 49 48 53 54 47
2 359 356 353 351 349 346 345 344 343 340 338 335 335 335 329 324 324 323 330 326 335 339 122 108 92 91 28 273 263 279 327 317 321 315 344 313 312 352 30 71 120 151 130 158 154 117 129 112 83 252 139 256 124 310 84 176 121 108 123 111 102 82 35 35 20 39 156 302 14 74 4 26 31 4 358 42 67 73 60 49 55 57 54 51 55 56 53
359 358 356 354 351 349 347 346 343 342 338 335 334 333 332 324 319 320 320 328 329 340 23 89 75 62 86 252 261 262 271 322 323 324 326 329 4 305 19 56 59 70 48 88 117 144 115 171 115 170 73 162 226 270 9 131 146 121 129 109 123 108 88 28 64 65 64 319 115 98 106 100 39 36 20 7 11 353 76 69 57 61 59 57 53 50 46 45
358 357 355 354 351 349 347 344 341 337 336 330 330 328 326 314 306 313 323 334 356 343 52 70 52 56 31 295 270 286 320 264 343 337 320 341 329 329 64 42 42 69 87 104 104 110 92 86 100 47 246 225 337 354 2 78 123 135 118 130 355 105 87 59 29 80 105 74 97 88 78 91 84 64 37 15 25 47 76 69 65 56 62 62 62 59 55 45
356 356 354 352 350 348 345 343 340 336 329 327 324 323 311 295 296 316 337 351 359 2 345 57 6 106 93 11 316 329 8 0 319 309 297 253 222 243 153 110 94 20 99 96 114 59 47 100 131 202 298 51 65 80 119 107 138 4 120 125 131 111 127 78 8 32 69 72 7 108 124 116 78 67 53 47 37 48 80 72 62 59 58 58 56 60 61 52
354 353 351 350 349 346 344 343 340 336 328 324 326 319 309 291 304 335 339 353 343 351 35 22 318 88 79 243 241 4 337 304 304 307 328 286 225 243 91 116 192 310 13 23 59 34 22 60 266 34 7 103 254 138 137 144 147 102 86 106 96 120 113 86 56 27 95 92 61 93 103 91 95 78 71 51 48 52 79 78 76 70 63 61 61 59 59 59
352 351 350 348 347 345 344 342 343 336 328 326 328 309 307 359 33 17 358 344 333 71 53 340 6 45 305 346 5 312 303 301 323 309 285 318 163 179 126 230 152 65 26 35 26 62 255 83 45 153 23 352 22 118 173 161 158 137 127 116 98 82 78 95 104 124 81 82 91 87 92 99 88 76 54 44 39 70 83 78 80 76 72 68 63 58 58 58
351 350 348 347 345 345 343 345 344 342 333 331 331 335 11 52 44 80 53 339 19 4 26 348 13 45 343 307 299 301 316 296 278 331 349 4 332 352 89 179 163 126 143 139 245 149 114 75 62 42 0 335 343 9 139 158 118 123 118 113 114 103 106 105 112 126 101 89 83 84 101 107 91 76 60 54 52 80 81 79 71 69 70 69 66 63 59 58
350 348 347 345 345 342 342 345 349 346 346 349 2 10 17 20 4 327 346 14 48 77 121 291 355 201 273 302 318 298 280 216 10 1 2 351 351 358 37 29 299 66 78 65 144 213 155 78 73 107 309 292 286 259 139 155 108 105 112 107 100 99 95 107 105 118 101 84 77 97 96 91 90 79 76 47 41 59 66 69 67 64 65 61 60 58 55 52
348 346 345 344 343 342 341 345 357 356 1 15 21 56 74 225 42 329 327 288 267 339 52 352 41 347 313 285 295 346 359 325 12 4 0 316 14 64 357 13 21 43 345 314 125 240 100 56 7 336 300 266 258 222 111 117 114 110 106 106 104 105 110 121 118 164 102 100 103 98 89 81 84 89 88 92 64 63 61 65 65 63 59 59 55 51 48 49
346 344 343 341 342 341 339 345 19 9 16 28 62 81 113 159 151 154 107 2 338 5 39 359 322 7 322 285 260 342 239 8 359 350 349 13 333 42 333 52 56 54 346 304 44 31 52 43 333 318 302 266 238 106 106 116 111 113 111 109 104 96 99 84 89 98 94 98 114 108 90 87 85 86 80 72 68 66 58 57 61 61 58 51 46 45 44 40
344 343 341 340 340 338 339 345 63 35 15 27 54 87 150 226 328 157 105 145 272 274 25 17 10 4 348 343 2 4 38 37 312 349 346 347 349 66 329 37 42 61 44 35 85 54 34 351 323 303 292 133 101 102 109 97 92 111 125 115 113 136 125 132 66 54 336 115 133 101 91 81 82 68 62 48 60 60 59 59 55 49 57 51 46 41 38 36
343 343 341 338 338 339 340 358 98 47 44 92 88 70 179 144 133 91 74 114 351 334 35 5 3 6 353 345 337 9 46 345 17 344 335 9 4 302 57 41 41 56 51 47 67 72 66 311 310 316 111 115 105 99 106 105 77 1 113 119 128 137 101 113 114 101 94 94 115 101 82 81 51 72 71 53 52 62 47 58 58 52 52 50 49 48 41 41
342 342 340 339 338 340 340 78 39 51 142 55 48 281 285 172 125 137 85 355 25 348 64 202 26 14 324 199 326 40 319 298 25 302 317 12 336 10 9 313 71 46 69 41 50 48 17 348 318 84 90 91 102 90 41 107 91 68 342 131 118 113 115 117 129 124 110 130 237 67 79 55 64 79 74 53 45 53 33 59 49 46 42 38 44 41 30 34
341 341 339 340 340 340 343 66 316 33 71 46 178 306 261 138 122 99 94 83 37 315 349 12 350 0 332 347 343 315 350 31 354 315 338 349 248 113 310 13 43 19 359 46 67 77 358 338 354 73 91 89 83 80 24 43 112 102 357 87 121 125 124 129 133 110 86 124 316 41 120 121 104 106 117 99 78 63 44 60 57 52 46 43 43 39 32 33
340 339 339 342 344 345 58 310 278 70 27 317 238 89 95 127 123 90 51 11 44 358 3 282 11 324 8 325 320 352 52 309 315 355 3 356 358 289 85 357 21 12 200 76 91 23 345 354 22 45 61 70 77 72 343 60 99 66 56 102 106 109 108 103 81 83 114 116 59 43 61 123 143 226 153 148 105 104 72 59 54 60 61 55 47 42 40 36
339 339 340 340 344 16 142 25 26 36 193 278 27 10 104 131 94 75 78 67 20 336 7 323 31 304 53 324 342 64 180 269 22 342 352 321 13 351 64 25 61 35 356 99 72 256 317 8 26 27 56 54 55 288 308 74 87 124 122 87 71 93 100 98 92 100 122 98 57 19 3 78 87 159 108 166 107 66 107 114 86 77 77 59 48 37 41 38
338 338 339 341 334 74 85 105 116 0 250 301 314 119 109 93 76 92 109 83 281 42 19 7 359 14 341 337 37 27 18 22 61 294 314 12 14 182 42 7 343 12 47 66 90 315 300 43 25 300 51 49 347 49 113 108 100 129 121 74 85 90 79 79 93 93 23 64 44 335 18 100 99 186 188 334 123 178 197 179 169 161 151 123 108 49 28 24
335 337 338 343 351 26 360 22 79 244 203 244 104 95 60 47 38 38 12 57 293 342 8 257 39 315 331 352 10 7 18 359 36 298 26 52 5 32 52 154 39 14 54 30 76 70 34 262 261 42 15 346 56 15 68 96 119 145 126 118 93 66 69 54 63 66 70 44 327 298 335 113 173 214 200 161 217 175 162 213 209 209 180 187 163 166 149 81
336 333 336 351 43 323 60 7 275 238 146 98 76 67 64 42 90 104 57 253 32 261 340 11 344 356 359 16 2 339 21 7 4 9 12 9 15 30 16 22 356 40 39 20 59 330 46 34 43 16 23 39 36 82 32 49 66 87 98 112 102 40 33 37 0 32 81 299 279 306 69 101 133 239 213 235 243 153 162 172 191 193 189 194 202 197 194 190
332 330 331 345 230 122 36 309 308 129 96 108 92 56 67 16 16 63 201 319 57 318 37 307 317 348 336 314 38 352 347 340 19 19 25 10 39 46 26 68 343 27 13 0 3 352 39 38 32 28 37 42 349 73 41 41 20 59 60 38 91 77 43 8 6 28 45 164 253 325 297 2 5 244 212 171 174 175 181 171 176 182 193 192 202 207 210 214
328 328 330 21 60 28 237 234 115 123 84 63 67 57 58 92 45 294 301 333 228 311 303 138 278 341 305 352 10 337 299 46 301 24 329 27 73 83 68 44 8 64 103 303 32 22 15 19 23 354 16 8 23 76 23 49 351 40 53 92 70 71 50 85 287 242 348 300 262 309 346 89 279 300 219 177 194 180 183 177 178 180 181 187 195 203 205 221
326 330 339 294 256 213 279 165 131 109 89 81 76 36 72 60 229 57 183 274 279 347 301 6 315 332 17 50 328 344 5 321 28 348 19 1 37 14 360 29 22 6 68 14 55 354 72 7 357 8 360 344 32 61 3 164 48 42 223 116 150 141 151 145 189 150 196 191 248 306 76 241 139 254 200 210 191 188 175 178 187 187 180 182 191 191 201 208
319 352 340 322 14 282 329 246 127 132 87 70 56 93 77 186 227 258 294 294 304 288 288 314 333 359 342 14 319 2 92 313 22 8 23 37 13 26 2 338 4 32 326 77 343 76 61 112 281 297 248 329 32 325 145 89 58 358 121 73 58 47 154 120 203 145 179 136 14 346 193 194 195 278 277 275 226 201 182 176 171 190 188 181 183 199 204 213
13 318 11 342 7 330 354 346 126 94 111 67 85 51 74 177 184 116 282 185 266 353 306 341 88 27 327 346 308 12 340 80 344 50 6 57 27 30 339 342 13 22 5 79 269 85 359 34 293 319 351 57 4 324 21 266 111 257 51 36 174 170 96 100 58 56 77 53 306 192 323 298 294 322 240 203 202 207 200 187 184 187 192 185 197 205 212 212
17 345 30 319 359 333 342 19 117 66 62 81 81 66 192 291 185 171 317 353 279 291 354 57 341 49 349 331 315 346 332 37 1 56 6 20 7 16 353 322 41 8 45 115 20 171 131 179 301 36 346 351 34 205 114 55 127 66 78 223 141 108 121 117 142 332 56 134 249 13 234 295 52 269 188 194 209 213 209 205 200 196 187 197 212 208 208 212
32 21 220 8 329 320 332 27 80 36 59 70 62 113 271 69 284 209 243 357 357 358 43 66 286 86 331 38 340 357 330 76 337 36 32 354 102 301 2 340 327 36 341 342 122 330 74 45 318 16 280 288 338 50 14 8 31 91 149 160 99 213 32 346 90 54 68 287 282 314 281 254 200 241 166 206 205 214 215 210 205 208 204 211 215 219 222 223
51 75 11 317 347 340 339 5 66 59 69 65 352 85 294 237 279 223 249 153 193 324 71 357 150 359 111 37 265 317 343 36 328 33 69 332 62 17 35 331 310 340 351 350 49 301 41 126 309 317 24 297 19 34 42 315 330 24 39 23 346 90 123 80 146 172 108 208 59 287 46 249 201 217 190 205 205 204 203 203 212 208 202 207 212 212 213 217
13 37 316 295 344 11 329 45 64 46 54 77 156 75 213 61 280 280 288 170 342 64 359 23 2 35 17 337 53 344 323 38 11 324 95 314 101 310 30 359 317 317 340 356 80 288 280 116 90 282 328 41 22 11 66 329 341 336 22 349 3 17 236 108 33 59 155 161 171 159 323 270 252 203 180 206 205 202 194 203 210 211 210 209 208 205 210 212
46 101 269 326 353 345 27 46 40 33 75 218 86 142 32 171 318 298 330 0 294 337 108 114 6 73 277 357 350 313 341 17 18 27 57 328 65 335 8 15 324 327 343 356 34 13 56 12 122 319 17 38 194 248 206 193 212 190 141 88 182 43 40 97 296 38 74 89 211 115 248 269 271 168 195 205 212 202 202 201 207 212 214 213 216 217 208 212
80 47 293 340 352 24 79 51 30 87 90 71 56 159 12 201 36 327 342 338 60 8 353 105 46 108 38 54 227 341 61 26 355 70 339 86 336 122 284 1 334 289 344 41 324 308 108 121 91 44 93 187 254 291 327 264 162 307 125 59 143 129 96 93 125 253 41 45 116 155 71 277 245 211 214 225 211 208 206 198 211 215 217 220 223 219 220 214
45 180 253 328 350 79 67 64 354 41 65 229 280 319 306 15 138 258 50 344 27 23 21 56 258 70 345 42 308 39 32 64 10 42 329 322 250 223 268 336 324 5 93 333 25 296 88 54 41 321 311 304 316 307 93 38 48 7 354 61 61 37 202 165 167 189 131 317 66 5 237 252 285 289 257 240 235 221 211 195 207 217 220 227 227 229 227 232
156 272 329 318 18 96 78 117 91 50 87 316 53 179 301 189 56 356 28 310 68 357 80 10 356 64 225 95 77 40 324 69 14 77 350 346 344 215 333 15 356 24 36 302 50 291 42 331 113 35 359 334 342 343 6 331 51 87 332 329 35 69 65 157 112 67 81 224 165 116 228 290 281 334 348 17 156 194 208 228 210 216 230 229 231 235 233 234
110 302 240 310 2 51 97 184 128 144 157 127 107 61 4 8 186 228 187 350 346 136 100 352 118 286 0 343 35 312 329 95 225 329 125 296 278 353 333 23 355 33 345 285 349 316 89 225 87 106 114 62 357 350 286 294 272 280 274 333 29 66 88 36 217 359 89 276 113 158 255 260 283 328 329 317 312 261 252 241 248 229 229 229 233 235 236 232
45 105 310 358 15 36 68 61 92 128 131 140 67 264 100 81 346 325 111 335 167 37 91 218 337 86 41 30 16 5 355 10 90 304 39 322 309 329 313 338 43 358 345 36 20 75 121 103 101 149 145 181 204 210 247 157 33 40 276 324 282 46 40 94 99 88 221 200 208 238 186 306 309 277 263 260 253 234 241 247 246 247 247 248 244 242 234 230
132 83 3 28 335 47 61 11 81 75 158 175 103 181 53 145 218 342 356 18 345 92 30 50 247 46 325 71 15 28 340 339 352 65 347 308 272 259 306 36 348 2 344 356 11 92 69 49 83 139 207 212 187 209 197 149 192 230 200 280 227 203 172 104 154 221 183 84 296 263 231 214 262 244 245 243 241 245 246 246 248 254 251 241 239 239 244 250
75 231 94 222 123 193 52 356 97 87 71 84 130 73 146 122 74 136 349 43 8 5 94 329 36 41 167 133 132 63 334 11 7 5 327 280 334 323 355 350 50 334 0 4 348 95 122 84 305 66 275 247 255 251 236 309 220 221 202 204 191 208 137 159 229 211 146 177 219 223 151 233 261 220 237 236 231 230 230 232 230 237 258 263 263 257 249 244
111 138 134 321 91 284 145 152 101 108 86 103 115 110 125 126 152 204 164 350 25 329 71 162 303 312 313 320 121 131 262 59 331 304 121 312 359 328 350 338 301 12 17 12 12 121 92 8 233 96 279 304 295 229 207 191 259 283 234 227 229 198 213 207 225 201 186 232 245 253 263 266 264 268 250 249 238 231 243 254 283 275 253 254 256 253 249 245
215 124 89 9 86 109 19 65 85 74 77 1 89 271 142 161 140 203 357 116 56 301 33 94 215 248 269 53 94 103 235 173 178 241 256 356 324 117 260 197 290 349 19 19 330 301 102 279 113 180 357 301 294 353 112 179 182 276 259 236 222 218 232 227 234 233 214 275 262 267 277 281 274 218 248 258 253 241 257 257 250 251 254 248 244 246 246 243
169 177 156 123 66 328 39 37 78 106 91 337 87 223 111 190 169 170 136 240 165 190 220 181 175 164 337 55 61 206 241 192 182 200 185 166 259 271 78 281 105 326 357 351 19 323 53 249 64 68 25 312 312 26 302 31 239 235 272 259 230 201 232 212 208 207 166 219 137 142 258 253 260 220 248 255 187 198 224 241 249 251 249 248 243 246 244 244
67 19 84 101 93 306 287 352 37 58 42 219 140 197 168 215 183 149 75 187 101 49 191 145 174 108 328 37 262 233 220 184 190 212 183 193 23 40 14 249 320 337 326 358 308 24 57 111 26 22 50 267 262 52 316 335 326 306 269 239 204 198 195 256 265 207 214 151 148 187 232 222 234 216 223 265 203 221 228 236 245 253 246 234 236 240 241 243